| time (UTC) | temp C | wind direction | speed KPH | gust KPH | rain 1hr cm | rain 24hr cm | rain mn cm | humidity % | barometer mb |
| 20260510153505 | 17 | 355 | 1.6 | 8.0 | 0.00 | 0.00 | 0.00 | 79 | 1017.0 |
| 20260510153004 | 17 | 358 | 3.2 | 11.3 | 0.00 | 0.00 | 0.00 | 79 | 1017.0 |
| 20260510152505 | 17 | 355 | 3.2 | 11.3 | 0.00 | 0.00 | 0.00 | 78 | 1017.0 |
| 20260510152005 | 17 | 346 | 3.2 | 8.0 | 0.00 | 0.00 | 0.00 | 79 | 1017.1 |
| 20260510151526 | 17 | 345 | 1.6 | 8.0 | 0.00 | 0.00 | 0.00 | 79 | 1017.1 |
| 20260510151005 | 17 | 5 | 0.0 | 4.8 | 0.00 | 0.00 | 0.00 | 79 | 1017.0 |
| 20260510150526 | 17 | 356 | 1.6 | 6.4 | 0.00 | 0.00 | 0.00 | 80 | 1016.8 |
| 20260510150005 | 17 | 356 | 1.6 | 8.0 | 0.00 | 0.00 | 0.00 | 80 | 1016.7 |
| 20260510145505 | 17 | 356 | 0.0 | 8.0 | 0.00 | 0.00 | 0.00 | 81 | 1016.5 |
| 20260510145026 | 17 | 342 | 0.0 | 3.2 | 0.00 | 0.00 | 0.00 | 81 | 1016.4 |
| 20260510144505 | 17 | 357 | 0.0 | 4.8 | 0.00 | 0.00 | 0.00 | 81 | 1016.2 |
| 20260510144005 | 17 | 354 | 1.6 | 8.0 | 0.00 | 0.00 | 0.00 | 81 | 1015.9 |
| 20260510143526 | 17 | 349 | 3.2 | 9.7 | 0.00 | 0.00 | 0.00 | 81 | 1016.0 |
| 20260510143026 | 17 | 347 | 3.2 | 9.7 | 0.00 | 0.00 | 0.00 | 82 | 1016.1 |
| 20260510142505 | 17 | 335 | 0.0 | 8.0 | 0.00 | 0.00 | 0.00 | 83 | 1015.7 |
| 20260510142005 | 17 | 355 | 0.0 | 3.2 | 0.00 | 0.00 | 0.00 | 83 | 1015.8 |
| 20260510141526 | 17 | 355 | 0.0 | 4.8 | 0.00 | 0.00 | 0.00 | 83 | 1015.9 |
| 20260510141004 | 17 | 355 | 0.0 | 4.8 | 0.00 | 0.00 | 0.00 | 83 | 1016.1 |
| 20260510140505 | 17 | 355 | 0.0 | 4.8 | 0.00 | 0.00 | 0.00 | 83 | 1016.1 |
| 20260510140005 | 17 | 343 | 1.6 | 8.0 | 0.00 | 0.00 | 0.00 | 84 | 1016.3 |
| 20260510135526 | 17 | 344 | 3.2 | 8.0 | 0.00 | 0.00 | 0.00 | 84 | 1016.3 |
| 20260510135005 | 17 | 353 | 1.6 | 8.0 | 0.00 | 0.00 | 0.00 | 84 | 1016.2 |
| 20260510134505 | 17 | 360 | 1.6 | 6.4 | 0.00 | 0.00 | 0.00 | 84 | 1016.0 |
| 20260510134005 | 17 | 2 | 1.6 | 6.4 | 0.00 | 0.00 | 0.00 | 84 | 1016.4 |
| 20260510133505 | 17 | 14 | 1.6 | 6.4 | 0.00 | 0.00 | 0.00 | 85 | 1016.9 |
| 20260510133005 | 17 | 19 | 1.6 | 6.4 | 0.00 | 0.00 | 0.00 | 85 | 1017.1 |
| 20260510132505 | 17 | 0 | 0.0 | 0.0 | 0.00 | 0.00 | 0.00 | 85 | 1016.5 |
| 20260510132025 | 17 | 0 | 0.0 | 0.0 | 0.00 | 0.00 | 0.00 | 85 | 1016.5 |
| 20260510131529 | 17 | 0 | 0.0 | 0.0 | 0.00 | 0.00 | 0.00 | 85 | 1016.3 |
| 20260510131005 | 17 | 0 | 0.0 | 0.0 | 0.00 | 0.00 | 0.00 | 85 | 1016.3 |
| 20260510130505 | 17 | 0 | 0.0 | 0.0 | 0.00 | 0.00 | 0.00 | 85 | 1016.2 |
| 20260510130005 | 17 | 0 | 0.0 | 0.0 | 0.00 | 0.00 | 0.00 | 85 | 1016.2 |
| 20260510125505 | 17 | 21 | 0.0 | 1.6 | 0.00 | 0.00 | 0.00 | 84 | 1016.2 |
| 20260510125005 | 17 | 21 | 0.0 | 1.6 | 0.00 | 0.00 | 0.00 | 84 | 1016.2 |
| 20260510124505 | 17 | 0 | 0.0 | 0.0 | 0.00 | 0.00 | 0.00 | 84 | 1016.1 |
| 20260510124005 | 17 | 0 | 0.0 | 0.0 | 0.00 | 0.00 | 0.00 | 84 | 1015.8 |
| 20260510123505 | 17 | 0 | 0.0 | 0.0 | 0.00 | 0.00 | 0.00 | 83 | 1015.5 |
| 20260510123005 | 17 | 0 | 0.0 | 0.0 | 0.00 | 0.00 | 0.00 | 83 | 1015.3 |
| 20260510122505 | 17 | 0 | 0.0 | 0.0 | 0.00 | 0.00 | 0.00 | 83 | 1015.1 |
| 20260510122005 | 17 | 0 | 0.0 | 0.0 | 0.00 | 0.00 | 0.00 | 82 | 1014.7 |
| 20260510121504 | 17 | 0 | 0.0 | 0.0 | 0.00 | 0.00 | 0.00 | 82 | 1014.6 |
| 20260510121026 | 16 | 0 | 0.0 | 0.0 | 0.00 | 0.00 | 0.00 | 82 | 1014.5 |
| 20260510120505 | 16 | 0 | 0.0 | 0.0 | 0.00 | 0.03 | 0.00 | 81 | 1014.3 |
| 20260510120005 | 16 | 0 | 0.0 | 0.0 | 0.00 | 0.03 | 0.00 | 80 | 1014.3 |
| 20260510115525 | 16 | 0 | 0.0 | 0.0 | 0.00 | 0.03 | 0.00 | 80 | 1014.0 |
| 20260510115005 | 16 | 0 | 0.0 | 0.0 | 0.00 | 0.03 | 0.00 | 79 | 1013.7 |
| 20260510114505 | 17 | 0 | 0.0 | 0.0 | 0.00 | 0.03 | 0.00 | 79 | 1013.7 |
| 20260510114005 | 17 | 0 | 0.0 | 0.0 | 0.00 | 0.03 | 0.00 | 79 | 1013.5 |
| 20260510113525 | 17 | 0 | 0.0 | 0.0 | 0.00 | 0.03 | 0.00 | 79 | 1013.7 |
| 20260510113026 | 17 | 0 | 0.0 | 0.0 | 0.00 | 0.03 | 0.00 | 79 | 1013.5 |
| 20260510112526 | 17 | 0 | 0.0 | 0.0 | 0.00 | 0.03 | 0.00 | 78 | 1013.3 |
| 20260510112005 | 17 | 0 | 0.0 | 0.0 | 0.00 | 0.03 | 0.00 | 78 | 1013.2 |
| 20260510111504 | 17 | 0 | 0.0 | 0.0 | 0.00 | 0.03 | 0.00 | 77 | 1013.2 |
| 20260510111005 | 17 | 0 | 0.0 | 0.0 | 0.00 | 0.03 | 0.00 | 77 | 1013.2 |
| 20260510110505 | 17 | 0 | 0.0 | 0.0 | 0.00 | 0.03 | 0.00 | 77 | 1013.1 |
| 20260510110005 | 17 | 0 | 0.0 | 0.0 | 0.00 | 0.03 | 0.00 | 77 | 1013.1 |
| 20260510105504 | 17 | 0 | 0.0 | 0.0 | 0.00 | 0.03 | 0.00 | 76 | 1013.1 |
| 20260510105005 | 17 | 0 | 0.0 | 0.0 | 0.00 | 0.03 | 0.00 | 76 | 1013.0 |
| 20260510104505 | 17 | 0 | 0.0 | 0.0 | 0.00 | 0.03 | 0.00 | 76 | 1012.8 |
| 20260510104025 | 17 | 0 | 0.0 | 0.0 | 0.00 | 0.03 | 0.00 | 76 | 1012.7 |
| 20260510103505 | 17 | 0 | 0.0 | 0.0 | 0.00 | 0.03 | 0.00 | 76 | 1012.7 |
| 20260510103004 | 17 | 0 | 0.0 | 0.0 | 0.00 | 0.03 | 0.00 | 76 | 1012.8 |
| 20260510102505 | 18 | 0 | 0.0 | 0.0 | 0.00 | 0.03 | 0.00 | 76 | 1012.8 |
| 20260510102004 | 18 | 0 | 0.0 | 0.0 | 0.00 | 0.03 | 0.00 | 75 | 1012.9 |
| 20260510101504 | 18 | 0 | 0.0 | 0.0 | 0.00 | 0.03 | 0.00 | 75 | 1012.8 |
| 20260510101004 | 18 | 0 | 0.0 | 0.0 | 0.00 | 0.03 | 0.00 | 75 | 1012.6 |
| 20260510100505 | 18 | 0 | 0.0 | 0.0 | 0.00 | 0.03 | 0.00 | 75 | 1012.5 |
| 20260510100025 | 18 | 0 | 0.0 | 0.0 | 0.00 | 0.03 | 0.00 | 74 | 1012.4 |
| 20260510095525 | 18 | 0 | 0.0 | 0.0 | 0.00 | 0.03 | 0.00 | 75 | 1012.4 |
| 20260510095025 | 18 | 0 | 0.0 | 0.0 | 0.00 | 0.03 | 0.00 | 74 | 1012.4 |
| 20260510094504 | 18 | 0 | 0.0 | 0.0 | 0.00 | 0.03 | 0.00 | 74 | 1012.4 |
| 20260510094004 | 18 | 0 | 0.0 | 0.0 | 0.00 | 0.03 | 0.00 | 74 | 1012.4 |
| 20260510093504 | 18 | 0 | 0.0 | 0.0 | 0.00 | 0.03 | 0.00 | 74 | 1012.4 |
| 20260510093004 | 18 | 0 | 0.0 | 0.0 | 0.00 | 0.03 | 0.00 | 73 | 1012.2 |
| 20260510092504 | 18 | 0 | 0.0 | 0.0 | 0.00 | 0.03 | 0.00 | 73 | 1012.1 |
| 20260510092004 | 19 | 0 | 0.0 | 0.0 | 0.00 | 0.03 | 0.00 | 72 | 1012.1 |
| 20260510091504 | 19 | 0 | 0.0 | 0.0 | 0.00 | 0.03 | 0.00 | 72 | 1012.1 |
| 20260510091004 | 19 | 0 | 0.0 | 0.0 | 0.00 | 0.03 | 0.00 | 71 | 1012.1 |
| 20260510090504 | 19 | 0 | 0.0 | 0.0 | 0.00 | 0.03 | 0.00 | 71 | 1012.2 |
| 20260510090004 | 19 | 0 | 0.0 | 0.0 | 0.00 | 0.03 | 0.00 | 71 | 1011.9 |
| 20260510085504 | 20 | 0 | 0.0 | 0.0 | 0.00 | 0.03 | 0.00 | 71 | 1011.8 |
| 20260510085004 | 20 | 0 | 0.0 | 0.0 | 0.00 | 0.03 | 0.00 | 71 | 1011.5 |
| 20260510084504 | 20 | 0 | 0.0 | 0.0 | 0.00 | 0.03 | 0.00 | 71 | 1011.4 |
| 20260510084025 | 20 | 0 | 0.0 | 0.0 | 0.00 | 0.03 | 0.00 | 71 | 1011.3 |
| 20260510083504 | 20 | 21 | 0.0 | 3.2 | 0.00 | 0.03 | 0.00 | 71 | 1011.3 |
| 20260510083004 | 20 | 21 | 0.0 | 3.2 | 0.00 | 0.03 | 0.00 | 70 | 1011.1 |
| 20260510082504 | 20 | 0 | 0.0 | 0.0 | 0.00 | 0.03 | 0.00 | 70 | 1010.9 |
| 20260510082004 | 20 | 21 | 0.0 | 4.8 | 0.00 | 0.03 | 0.00 | 70 | 1010.5 |
| 20260510081504 | 20 | 21 | 0.0 | 4.8 | 0.00 | 0.03 | 0.00 | 70 | 1010.3 |
| 20260510081005 | 20 | 21 | 0.0 | 3.2 | 0.00 | 0.03 | 0.00 | 70 | 1010.2 |
| 20260510080504 | 20 | 357 | 1.6 | 8.0 | 0.00 | 0.03 | 0.00 | 70 | 1010.4 |
| 20260510080004 | 20 | 2 | 1.6 | 8.0 | 0.00 | 0.03 | 0.00 | 70 | 1010.6 |
| 20260510075525 | 20 | 40 | 1.6 | 6.4 | 0.00 | 0.03 | 0.00 | 70 | 1010.7 |
| 20260510075004 | 20 | 82 | 0.0 | 6.4 | 0.00 | 0.03 | 0.00 | 69 | 1010.4 |
| 20260510074504 | 20 | 65 | 0.0 | 6.4 | 0.00 | 0.03 | 0.00 | 69 | 1010.1 |
| 20260510074004 | 20 | 61 | 1.6 | 3.2 | 0.00 | 0.03 | 0.00 | 69 | 1009.7 |
| 20260510073504 | 20 | 40 | 1.6 | 4.8 | 0.00 | 0.03 | 0.00 | 69 | 1009.2 |
| 20260510073004 | 20 | 96 | 3.2 | 6.4 | 0.00 | 0.03 | 0.00 | 69 | 1008.8 |
| 20260510072504 | 20 | 111 | 3.2 | 6.4 | 0.00 | 0.03 | 0.00 | 68 | 1008.4 |
| 20260510072004 | 20 | 109 | 1.6 | 6.4 | 0.00 | 0.03 | 0.00 | 68 | 1008.9 |
| 20260510071525 | 20 | 127 | 1.6 | 4.8 | 0.00 | 0.03 | 0.00 | 67 | 1010.3 |
| 20260510071004 | 20 | 177 | 0.0 | 4.8 | 0.00 | 0.03 | 0.00 | 66 | 1011.4 |
| 20260510070504 | 20 | 174 | 0.0 | 3.2 | 0.00 | 0.03 | 0.00 | 65 | 1011.4 |
| 20260510070004 | 20 | 100 | 1.6 | 9.7 | 0.00 | 0.03 | 0.00 | 65 | 1011.4 |
| 20260510065504 | 20 | 104 | 1.6 | 9.7 | 0.00 | 0.03 | 0.00 | 65 | 1010.7 |
| 20260510065004 | 21 | 148 | 1.6 | 4.8 | 0.00 | 0.03 | 0.00 | 65 | 1011.0 |
| 20260510064504 | 21 | 132 | 3.2 | 9.7 | 0.00 | 0.03 | 0.00 | 65 | 1010.9 |
| 20260510064004 | 21 | 153 | 3.2 | 9.7 | 0.00 | 0.03 | 0.00 | 65 | 1010.7 |
| 20260510063504 | 21 | 177 | 3.2 | 6.4 | 0.00 | 0.03 | 0.00 | 66 | 1011.5 |
| 20260510063004 | 21 | 359 | 1.6 | 6.4 | 0.00 | 0.03 | 0.00 | 67 | 1013.0 |
| 20260510062504 | 21 | 40 | 0.0 | 6.4 | 0.00 | 0.03 | 0.00 | 69 | 1013.5 |
| 20260510062004 | 21 | 360 | 0.0 | 3.2 | 0.00 | 0.03 | 0.00 | 68 | 1013.0 |
| 20260510061505 | 21 | 360 | 0.0 | 3.2 | 0.00 | 0.03 | 0.00 | 68 | 1013.0 |
| 20260510061025 | 21 | 359 | 1.6 | 4.8 | 0.00 | 0.03 | 0.00 | 68 | 1013.0 |
| 20260510060504 | 21 | 358 | 1.6 | 4.8 | 0.00 | 0.03 | 0.00 | 67 | 1013.0 |
| 20260510060025 | 21 | 348 | 0.0 | 3.2 | 0.00 | 0.03 | 0.00 | 67 | 1013.0 |
| 20260510055525 | 21 | 0 | 0.0 | 0.0 | 0.00 | 0.03 | 0.00 | 65 | 1012.9 |
| 20260510055004 | 21 | 0 | 0.0 | 0.0 | 0.00 | 0.03 | 0.00 | 65 | 1013.0 |
| 20260510054504 | 21 | 0 | 0.0 | 0.0 | 0.00 | 0.03 | 0.00 | 65 | 1013.2 |
| 20260510054004 | 21 | 0 | 0.0 | 0.0 | 0.00 | 0.03 | 0.00 | 65 | 1013.3 |
| 20260510053504 | 21 | 0 | 0.0 | 0.0 | 0.00 | 0.03 | 0.00 | 65 | 1013.3 |
| 20260510053004 | 21 | 0 | 0.0 | 0.0 | 0.00 | 0.03 | 0.00 | 65 | 1013.4 |
| 20260510052504 | 21 | 0 | 0.0 | 0.0 | 0.00 | 0.03 | 0.00 | 65 | 1013.5 |
| 20260510052004 | 21 | 348 | 0.0 | 3.2 | 0.00 | 0.03 | 0.00 | 66 | 1013.4 |
| 20260510051504 | 21 | 348 | 0.0 | 3.2 | 0.00 | 0.03 | 0.00 | 66 | 1013.6 |
| 20260510051004 | 21 | 349 | 0.0 | 8.0 | 0.00 | 0.03 | 0.00 | 68 | 1013.4 |
| 20260510050504 | 21 | 346 | 1.6 | 8.0 | 0.00 | 0.03 | 0.00 | 69 | 1013.4 |
| 20260510050006 | 21 | 351 | 1.6 | 8.0 | 0.00 | 0.03 | 0.00 | 71 | 1013.3 |
| 20260510045504 | 21 | 350 | 1.6 | 8.0 | 0.00 | 0.03 | 0.03 | 74 | 1013.2 |
| 20260510045004 | 20 | 345 | 1.6 | 4.8 | 0.00 | 0.03 | 0.03 | 75 | 1013.0 |
| 20260510044504 | 20 | 348 | 1.6 | 4.8 | 0.00 | 0.03 | 0.03 | 73 | 1012.8 |
| 20260510044025 | 20 | 0 | 0.0 | 0.0 | 0.00 | 0.03 | 0.03 | 71 | 1012.5 |
| 20260510043504 | 20 | 0 | 0.0 | 0.0 | 0.00 | 0.03 | 0.03 | 69 | 1012.3 |
| 20260510043004 | 20 | 0 | 0.0 | 0.0 | 0.00 | 0.03 | 0.03 | 69 | 1012.1 |
| 20260510042504 | 20 | 0 | 0.0 | 0.0 | 0.00 | 0.03 | 0.03 | 68 | 1012.0 |
| 20260510042004 | 20 | 0 | 0.0 | 0.0 | 0.00 | 0.03 | 0.03 | 67 | 1011.9 |
| 20260510041504 | 20 | 0 | 0.0 | 0.0 | 0.00 | 0.03 | 0.03 | 66 | 1011.6 |
| 20260510041004 | 20 | 0 | 0.0 | 0.0 | 0.00 | 0.03 | 0.03 | 66 | 1011.4 |
| 20260510040504 | 20 | 0 | 0.0 | 0.0 | 0.00 | 0.03 | 0.03 | 65 | 1011.4 |
| 20260510040004 | 20 | 0 | 0.0 | 0.0 | 0.00 | 0.03 | 0.03 | 64 | 1011.3 |
| 20260510035504 | 20 | 0 | 0.0 | 0.0 | 0.00 | 0.03 | 0.03 | 64 | 1011.3 |
| 20260510035004 | 20 | 0 | 0.0 | 0.0 | 0.00 | 0.03 | 0.03 | 64 | 1011.3 |
| 20260510034504 | 21 | 0 | 0.0 | 0.0 | 0.00 | 0.03 | 0.03 | 64 | 1011.2 |
| 20260510034004 | 21 | 0 | 0.0 | 0.0 | 0.00 | 0.03 | 0.03 | 64 | 1011.1 |
| 20260510033504 | 21 | 0 | 0.0 | 0.0 | 0.00 | 0.03 | 0.03 | 63 | 1011.1 |
| 20260510033004 | 21 | 0 | 0.0 | 0.0 | 0.00 | 0.03 | 0.03 | 64 | 1011.1 |
| 20260510032504 | 21 | 0 | 0.0 | 0.0 | 0.00 | 0.03 | 0.03 | 63 | 1011.1 |
| 20260510032025 | 21 | 0 | 0.0 | 0.0 | 0.00 | 0.03 | 0.03 | 63 | 1011.1 |
| 20260510031504 | 21 | 0 | 0.0 | 0.0 | 0.00 | 0.03 | 0.03 | 62 | 1011.2 |
| 20260510031004 | 21 | 0 | 0.0 | 0.0 | 0.00 | 0.03 | 0.03 | 62 | 1011.3 |
| 20260510030504 | 21 | 0 | 0.0 | 0.0 | 0.00 | 0.03 | 0.03 | 62 | 1011.2 |
| 20260510030004 | 21 | 0 | 0.0 | 0.0 | 0.00 | 0.03 | 0.03 | 61 | 1011.2 |
| 20260510025504 | 21 | 0 | 0.0 | 0.0 | 0.00 | 0.03 | 0.03 | 61 | 1011.2 |
| 20260510025004 | 21 | 0 | 0.0 | 0.0 | 0.00 | 0.03 | 0.03 | 61 | 1011.0 |
| 20260510024504 | 21 | 0 | 0.0 | 0.0 | 0.00 | 0.03 | 0.03 | 61 | 1011.0 |
| 20260510024004 | 22 | 0 | 0.0 | 0.0 | 0.00 | 0.03 | 0.03 | 60 | 1010.8 |
| 20260510023504 | 22 | 0 | 0.0 | 0.0 | 0.00 | 0.03 | 0.03 | 59 | 1010.6 |
| 20260510023004 | 22 | 0 | 0.0 | 0.0 | 0.00 | 0.03 | 0.03 | 59 | 1010.4 |
| 20260510022504 | 22 | 0 | 0.0 | 0.0 | 0.00 | 0.03 | 0.03 | 59 | 1010.1 |
| 20260510022025 | 22 | 0 | 0.0 | 0.0 | 0.00 | 0.03 | 0.03 | 58 | 1009.9 |
| 20260510021504 | 23 | 0 | 0.0 | 0.0 | 0.00 | 0.03 | 0.03 | 58 | 1009.7 |
| 20260510021004 | 23 | 0 | 0.0 | 0.0 | 0.00 | 0.03 | 0.03 | 57 | 1009.7 |
| 20260510020504 | 23 | 0 | 0.0 | 0.0 | 0.00 | 0.03 | 0.03 | 56 | 1009.4 |
| 20260510020004 | 23 | 0 | 0.0 | 0.0 | 0.00 | 0.03 | 0.03 | 55 | 1009.4 |
| 20260510015504 | 23 | 0 | 0.0 | 0.0 | 0.00 | 0.03 | 0.03 | 55 | 1009.4 |
| 20260510015004 | 23 | 0 | 0.0 | 0.0 | 0.00 | 0.03 | 0.03 | 54 | 1009.3 |
| 20260510014504 | 24 | 0 | 0.0 | 0.0 | 0.00 | 0.03 | 0.03 | 53 | 1009.2 |
| 20260510014004 | 24 | 0 | 0.0 | 0.0 | 0.00 | 0.03 | 0.03 | 51 | 1009.0 |
| 20260510013504 | 24 | 0 | 0.0 | 0.0 | 0.00 | 0.03 | 0.03 | 50 | 1008.9 |
| 20260510013004 | 25 | 0 | 0.0 | 0.0 | 0.00 | 0.03 | 0.03 | 49 | 1008.8 |
| 20260510012504 | 25 | 0 | 0.0 | 0.0 | 0.00 | 0.03 | 0.03 | 48 | 1008.7 |
| 20260510012025 | 25 | 0 | 0.0 | 0.0 | 0.00 | 0.03 | 0.03 | 48 | 1008.6 |
| 20260510011504 | 25 | 0 | 0.0 | 0.0 | 0.00 | 0.03 | 0.03 | 47 | 1008.6 |
| 20260510011004 | 25 | 0 | 0.0 | 0.0 | 0.00 | 0.03 | 0.03 | 47 | 1008.5 |
| 20260510010504 | 25 | 0 | 0.0 | 0.0 | 0.00 | 0.03 | 0.03 | 46 | 1008.5 |
| 20260510010004 | 26 | 0 | 0.0 | 0.0 | 0.00 | 0.05 | 0.03 | 46 | 1008.4 |
| 20260510005504 | 26 | 0 | 0.0 | 0.0 | 0.00 | 0.05 | 0.03 | 45 | 1008.4 |
| 20260510005004 | 26 | 0 | 0.0 | 0.0 | 0.00 | 0.05 | 0.03 | 45 | 1008.4 |
| 20260510004504 | 26 | 69 | 0.0 | 1.6 | 0.00 | 0.05 | 0.03 | 45 | 1008.4 |
| 20260510004004 | 26 | 71 | 0.0 | 3.2 | 0.00 | 0.05 | 0.03 | 45 | 1008.2 |
| 20260510003504 | 26 | 72 | 0.0 | 3.2 | 0.00 | 0.05 | 0.03 | 45 | 1008.2 |
| 20260510003025 | 26 | 76 | 0.0 | 4.8 | 0.00 | 0.05 | 0.03 | 46 | 1008.3 |
| 20260510002504 | 26 | 79 | 0.0 | 4.8 | 0.00 | 0.05 | 0.03 | 45 | 1008.1 |
| 20260510002004 | 26 | 71 | 0.0 | 1.6 | 0.00 | 0.05 | 0.03 | 46 | 1007.9 |
| 20260510001504 | 26 | 58 | 0.0 | 4.8 | 0.00 | 0.05 | 0.03 | 46 | 1008.0 |
| 20260510001004 | 26 | 43 | 0.0 | 4.8 | 0.00 | 0.05 | 0.03 | 44 | 1008.1 |
| 20260510000504 | 26 | 114 | 0.0 | 3.2 | 0.00 | 0.08 | 0.03 | 43 | 1008.1 |
| 20260510000004 | 27 | 104 | 0.0 | 3.2 | 0.00 | 0.18 | 0.03 | 42 | 1008.3 |
| 20260509235504 | 27 | 73 | 0.0 | 3.2 | 0.00 | 0.33 | 0.03 | 40 | 1008.3 |
| 20260509235004 | 27 | 94 | 0.0 | 3.2 | 0.00 | 0.36 | 0.03 | 37 | 1008.3 |
| 20260509234525 | 27 | 102 | 0.0 | 6.4 | 0.00 | 0.43 | 0.03 | 37 | 1008.2 |
| 20260509234004 | 27 | 78 | 0.0 | 6.4 | 0.00 | 0.64 | 0.03 | 35 | 1008.3 |
| 20260509233503 | 27 | 68 | 0.0 | 6.4 | 0.00 | 0.74 | 0.03 | 35 | 1008.4 |
| 20260509233004 | 27 | 78 | 0.0 | 3.2 | 0.00 | 0.76 | 0.03 | 38 | 1008.4 |
| 20260509232525 | 28 | 93 | 0.0 | 3.2 | 0.00 | 0.76 | 0.03 | 37 | 1008.5 |
| 20260509232025 | 28 | 109 | 1.6 | 4.8 | 0.00 | 0.76 | 0.03 | 37 | 1008.5 |
| 20260509231504 | 28 | 74 | 0.0 | 4.8 | 0.00 | 0.76 | 0.03 | 37 | 1008.3 |
| 20260509231004 | 28 | 56 | 0.0 | 4.8 | 0.00 | 0.76 | 0.03 | 40 | 1008.4 |
| 20260509230504 | 28 | 84 | 0.0 | 4.8 | 0.00 | 0.76 | 0.03 | 38 | 1008.5 |
| 20260509230025 | 28 | 93 | 0.0 | 3.2 | 0.00 | 0.76 | 0.03 | 38 | 1008.6 |
| 20260509225504 | 28 | 83 | 1.6 | 6.4 | 0.00 | 0.76 | 0.03 | 40 | 1008.7 |
| 20260509225004 | 28 | 95 | 1.6 | 6.4 | 0.00 | 0.76 | 0.03 | 38 | 1008.7 |
| 20260509224504 | 28 | 194 | 1.6 | 6.4 | 0.00 | 0.76 | 0.03 | 41 | 1008.7 |
| 20260509224004 | 28 | 62 | 0.0 | 6.4 | 0.00 | 0.76 | 0.03 | 38 | 1008.6 |
| 20260509223504 | 28 | 67 | 0.0 | 4.8 | 0.00 | 0.76 | 0.03 | 37 | 1008.7 |
| 20260509223004 | 28 | 58 | 0.0 | 3.2 | 0.00 | 0.76 | 0.03 | 41 | 1008.7 |
| 20260509222504 | 28 | 78 | 0.0 | 3.2 | 0.00 | 0.76 | 0.03 | 42 | 1008.5 |
| 20260509222004 | 28 | 87 | 0.0 | 4.8 | 0.00 | 0.76 | 0.03 | 40 | 1008.5 |
| 20260509221504 | 28 | 87 | 0.0 | 4.8 | 0.00 | 0.76 | 0.03 | 38 | 1008.6 |
| 20260509221025 | 28 | 86 | 0.0 | 3.2 | 0.00 | 0.76 | 0.03 | 37 | 1008.5 |
| 20260509220525 | 28 | 76 | 0.0 | 4.8 | 0.00 | 0.76 | 0.03 | 39 | 1008.6 |
| 20260509220004 | 28 | 87 | 0.0 | 6.4 | 0.00 | 0.76 | 0.03 | 35 | 1008.7 |
| 20260509215504 | 28 | 90 | 0.0 | 6.4 | 0.00 | 0.76 | 0.03 | 34 | 1008.8 |
| 20260509215004 | 28 | 69 | 0.0 | 3.2 | 0.00 | 0.76 | 0.03 | 33 | 1008.8 |
| 20260509214504 | 29 | 158 | 1.6 | 4.8 | 0.00 | 0.76 | 0.03 | 35 | 1008.9 |
| 20260509214025 | 29 | 183 | 1.6 | 4.8 | 0.00 | 0.76 | 0.03 | 40 | 1008.9 |
| 20260509213525 | 28 | 139 | 0.0 | 4.8 | 0.00 | 0.76 | 0.03 | 38 | 1009.0 |
| 20260509213025 | 28 | 100 | 0.0 | 3.2 | 0.00 | 0.76 | 0.03 | 34 | 1008.9 |
| 20260509212525 | 29 | 141 | 0.0 | 3.2 | 0.00 | 0.76 | 0.03 | 39 | 1008.9 |
| 20260509212004 | 29 | 103 | 0.0 | 4.8 | 0.00 | 0.76 | 0.03 | 40 | 1009.0 |
| 20260509211504 | 28 | 106 | 0.0 | 4.8 | 0.00 | 0.76 | 0.03 | 36 | 1009.1 |
| 20260509211025 | 28 | 154 | 0.0 | 4.8 | 0.00 | 0.76 | 0.03 | 35 | 1009.2 |
| 20260509210504 | 28 | 176 | 0.0 | 4.8 | 0.00 | 0.76 | 0.03 | 37 | 1009.3 |
| 20260509210004 | 29 | 210 | 0.0 | 4.8 | 0.00 | 0.76 | 0.03 | 41 | 1009.4 |
| 20260509205525 | 29 | 203 | 0.0 | 4.8 | 0.00 | 0.76 | 0.03 | 36 | 1009.4 |
| 20260509205004 | 29 | 161 | 0.0 | 3.2 | 0.00 | 0.76 | 0.03 | 39 | 1009.4 |
| 20260509204504 | 29 | 102 | 0.0 | 3.2 | 0.00 | 0.76 | 0.03 | 38 | 1009.5 |
| 20260509204004 | 29 | 122 | 0.0 | 3.2 | 0.00 | 0.76 | 0.03 | 39 | 1009.5 |
| 20260509203504 | 28 | 70 | 0.0 | 4.8 | 0.00 | 0.76 | 0.03 | 38 | 1009.6 |
| 20260509203025 | 29 | 27 | 0.0 | 4.8 | 0.00 | 0.76 | 0.03 | 42 | 1009.5 |
| 20260509202504 | 29 | 84 | 0.0 | 3.2 | 0.00 | 0.76 | 0.03 | 40 | 1009.7 |
| 20260509202004 | 29 | 82 | 0.0 | 3.2 | 0.00 | 0.76 | 0.03 | 43 | 1009.6 |
| 20260509201504 | 28 | 110 | 0.0 | 4.8 | 0.00 | 0.76 | 0.03 | 42 | 1009.7 |
| 20260509201025 | 29 | 147 | 0.0 | 4.8 | 0.00 | 0.76 | 0.03 | 38 | 1009.8 |
| 20260509200504 | 28 | 259 | 0.0 | 3.2 | 0.00 | 0.76 | 0.03 | 37 | 1009.8 |
| 20260509200004 | 29 | 263 | 0.0 | 3.2 | 0.00 | 0.76 | 0.03 | 38 | 1009.8 |
| 20260509195525 | 30 | 238 | 0.0 | 1.6 | 0.00 | 0.76 | 0.03 | 40 | 1009.8 |
| 20260509195004 | 30 | 288 | 0.0 | 4.8 | 0.00 | 0.76 | 0.03 | 44 | 1009.9 |
| 20260509194504 | 29 | 267 | 0.0 | 4.8 | 0.00 | 0.76 | 0.03 | 43 | 1010.1 |
| 20260509194004 | 29 | 250 | 0.0 | 4.8 | 0.00 | 0.76 | 0.03 | 45 | 1010.1 |
| 20260509193525 | 29 | 241 | 0.0 | 4.8 | 0.00 | 0.76 | 0.03 | 36 | 1010.2 |
| 20260509193004 | 29 | 229 | 0.0 | 3.2 | 0.00 | 0.76 | 0.03 | 39 | 1010.2 |
| 20260509192504 | 28 | 232 | 0.0 | 4.8 | 0.00 | 0.76 | 0.03 | 42 | 1010.2 |
| 20260509192004 | 29 | 233 | 0.0 | 4.8 | 0.00 | 0.76 | 0.03 | 48 | 1010.4 |
| 20260509191504 | 28 | 134 | 0.0 | 3.2 | 0.00 | 0.76 | 0.03 | 43 | 1010.3 |
| 20260509191004 | 28 | 119 | 0.0 | 3.2 | 0.00 | 0.76 | 0.03 | 44 | 1010.1 |
| 20260509190504 | 28 | 93 | 0.0 | 4.8 | 0.00 | 0.76 | 0.03 | 32 | 1010.2 |
| 20260509190004 | 28 | 92 | 1.6 | 4.8 | 0.00 | 0.76 | 0.03 | 34 | 1010.3 |
| 20260509185504 | 28 | 104 | 1.6 | 3.2 | 0.00 | 0.76 | 0.03 | 39 | 1010.3 |
| 20260509185004 | 28 | 199 | 0.0 | 4.8 | 0.00 | 0.76 | 0.03 | 39 | 1010.3 |
| 20260509184504 | 27 | 215 | 1.6 | 6.4 | 0.00 | 0.76 | 0.03 | 42 | 1010.2 |
| 20260509184025 | 28 | 244 | 1.6 | 6.4 | 0.00 | 0.76 | 0.03 | 46 | 1010.3 |
| 20260509183504 | 27 | 290 | 1.6 | 4.8 | 0.00 | 0.76 | 0.03 | 51 | 1010.4 |
| 20260509183025 | 27 | 287 | 1.6 | 4.8 | 0.00 | 0.76 | 0.03 | 45 | 1010.6 |
| 20260509182504 | 27 | 220 | 0.0 | 4.8 | 0.00 | 0.76 | 0.03 | 49 | 1010.6 |
| 20260509182004 | 27 | 187 | 0.0 | 4.8 | 0.00 | 0.76 | 0.03 | 45 | 1010.7 |
| 20260509181504 | 27 | 193 | 0.0 | 4.8 | 0.00 | 0.76 | 0.03 | 46 | 1010.7 |
| 20260509181003 | 27 | 226 | 0.0 | 8.0 | 0.00 | 0.76 | 0.03 | 49 | 1010.7 |
| 20260509180504 | 28 | 215 | 1.6 | 8.0 | 0.00 | 0.76 | 0.03 | 46 | 1010.9 |
| 20260509180004 | 28 | 195 | 1.6 | 8.0 | 0.00 | 0.76 | 0.03 | 54 | 1011.0 |
| 20260509175504 | 28 | 205 | 1.6 | 8.0 | 0.00 | 0.76 | 0.03 | 54 | 1011.0 |
| 20260509175003 | 27 | 225 | 1.6 | 6.4 | 0.00 | 0.76 | 0.03 | 53 | 1011.1 |
| 20260509174503 | 27 | 300 | 1.6 | 4.8 | 0.00 | 0.76 | 0.03 | 54 | 1011.2 |
| 20260509174024 | 27 | 334 | 1.6 | 6.4 | 0.00 | 0.76 | 0.03 | 58 | 1011.3 |
| 20260509173503 | 27 | 301 | 0.0 | 6.4 | 0.00 | 0.76 | 0.03 | 54 | 1011.4 |
| 20260509173004 | 27 | 249 | 0.0 | 4.8 | 0.00 | 0.76 | 0.03 | 58 | 1011.4 |
| 20260509172504 | 27 | 230 | 1.6 | 9.7 | 0.00 | 0.76 | 0.03 | 61 | 1011.5 |
| 20260509172003 | 27 | 207 | 1.6 | 9.7 | 0.00 | 0.76 | 0.03 | 63 | 1011.5 |
| 20260509171503 | 27 | 208 | 1.6 | 8.0 | 0.00 | 0.76 | 0.03 | 60 | 1011.5 |
| 20260509171004 | 26 | 217 | 1.6 | 4.8 | 0.00 | 0.76 | 0.03 | 62 | 1011.4 |
| 20260509170525 | 26 | 216 | 0.0 | 4.8 | 0.00 | 0.76 | 0.03 | 64 | 1011.5 |
| 20260509170004 | 26 | 204 | 0.0 | 4.8 | 0.00 | 0.76 | 0.03 | 65 | 1011.5 |
| 20260509165504 | 26 | 244 | 0.0 | 3.2 | 0.00 | 0.76 | 0.03 | 68 | 1011.5 |
| 20260509165003 | 26 | 248 | 0.0 | 3.2 | 0.00 | 0.76 | 0.03 | 69 | 1011.6 |
| 20260509164504 | 25 | 252 | 0.0 | 4.8 | 0.00 | 0.76 | 0.03 | 70 | 1011.6 |
| 20260509164003 | 25 | 269 | 0.0 | 4.8 | 0.00 | 0.76 | 0.03 | 72 | 1011.6 |
| 20260509163524 | 25 | 355 | 0.0 | 3.2 | 0.00 | 0.76 | 0.03 | 73 | 1011.8 |
| 20260509163004 | 24 | 16 | 0.0 | 3.2 | 0.00 | 0.76 | 0.03 | 72 | 1011.8 |
| 20260509162504 | 24 | 219 | 1.6 | 6.4 | 0.00 | 0.76 | 0.03 | 74 | 1011.7 |
| 20260509162004 | 23 | 211 | 1.6 | 8.0 | 0.00 | 0.76 | 0.03 | 75 | 1011.6 |
| 20260509161504 | 23 | 207 | 1.6 | 8.0 | 0.00 | 0.76 | 0.03 | 77 | 1011.7 |
| 20260509161003 | 23 | 215 | 1.6 | 8.0 | 0.00 | 0.76 | 0.03 | 82 | 1011.7 |
| 20260509160503 | 23 | 294 | 0.0 | 3.2 | 0.00 | 0.76 | 0.03 | 87 | 1011.5 |
| 20260509160004 | 22 | 265 | 0.0 | 4.8 | 0.00 | 0.76 | 0.03 | 89 | 1011.3 |
| 20260509155504 | 22 | 246 | 0.0 | 4.8 | 0.00 | 0.76 | 0.03 | 90 | 1011.5 |
| 20260509155003 | 22 | 0 | 0.0 | 0.0 | 0.00 | 0.76 | 0.03 | 92 | 1011.4 |
| 20260509154504 | 21 | 0 | 0.0 | 0.0 | 0.00 | 0.76 | 0.03 | 92 | 1011.4 |
| 20260509154004 | 21 | 0 | 0.0 | 0.0 | 0.00 | 0.76 | 0.03 | 93 | 1011.3 |